Location: �terpigny
(49.8910°N, 2.9249°E)
Time: 19:22:48
(UTC+00:00)

Okean-O - Pass Details

Date: 24 October 2021
Orbit: 639 x 640 km, 98.2° (Epoch: 07 December)

Event Time Altitude Azimuth Distance (km) Brightness Sun altitude
Exits shadow 18:02:49 20° 112° (ESE) 1,503 4.0 -14.0°
Maximum altitude 18:05:05 31° 65° (ENE) 1,130 3.4 -14.4°
Drops below altitude 10° 18:09:00 10° 4° (N) 2,045 5.2 -15.0°
Sets 18:11:24 0° 354° (N) 2,959 6.1 -15.4°
